Location: Alafon
(8.4500°N, 4.2333°E)
Time: 18:34:52
(UTC+00:00)

A-11 Canister half - Pass Details

Date: 11 August 2021
Orbit: 1515 x 1685 km, 47.2° (Epoch: 19 September)

Event Time Altitude Azimuth Distance (km) Brightness Sun altitude
Rises 19:23:15 0° 345° (NNW) 4,887 12.1 -20.3°
Reaches altitude 10° 19:29:11 10° 12° (NNE) 3,925 11.2 -21.7°
Maximum altitude 19:33:15 13° 36° (NE) 3,706 10.8 -22.6°
Enters shadow 19:36:46 11° 57° (ENE) 3,885 10.8 -23.4°
Drops below altitude 10° 19:37:19 10° 60° (ENE) 3,943 - -23.6°
Sets 19:43:14 0° 86° (E) 4,929 - -24.9°
